Theta_e
339 341 342 343 343 345 346 347 347 348 349 349 349 349 350 350 351 351 353 353 352 351 351 351 350 350 350 349 349 350 351 352 353 353 353 353 354 355 356 356 357 358 359 358 358 359 356 356 356 356 356 354 353 352 353 352 352 351 350 352 348 343 340 341 341 338 336 339 337 336 338 342 354 348 341 343 346 347 351 351 352 351 351 352 352
339 339 341 342 343 344 345 346 347 345 347 348 348 349 350 351 351 352 353 353 353 352 352 352 351 350 349 349 350 350 350 350 350 352 353 353 354 355 356 356 357 357 359 358 359 358 356 355 356 356 355 354 353 354 352 354 353 349 346 342 340 342 340 338 339 336 333 332 331 333 338 336 345 338 337 337 341 345 347 348 350 349 350 350 351
337 338 340 341 342 343 344 345 346 347 347 348 349 349 349 350 351 352 353 352 353 353 352 351 352 352 351 350 350 349 352 353 352 353 354 352 353 354 356 356 357 357 359 360 358 359 358 356 356 356 355 355 353 351 352 351 350 348 343 343 337 339 340 341 340 337 333 330 332 334 327 330 335 337 337 335 335 340 342 344 346 347 349 350 350
335 336 338 340 341 342 342 343 345 346 346 347 348 348 349 350 350 351 352 353 353 353 354 353 353 352 352 351 351 351 349 352 352 353 352 352 351 353 355 356 357 357 359 359 359 359 359 357 357 356 355 355 354 351 349 349 348 346 341 340 338 335 333 336 344 336 334 333 329 328 326 328 326 327 330 332 332 334 337 339 343 345 347 349 350
335 336 337 338 339 340 341 343 344 344 345 346 347 348 349 349 350 351 351 352 353 354 353 353 353 351 350 350 351 350 353 350 348 348 350 351 351 351 352 356 357 357 359 359 360 359 359 358 357 356 355 354 354 352 350 349 347 345 341 340 337 335 332 334 340 337 335 339 334 327 326 325 326 328 326 330 330 332 331 336 343 344 345 348 349
335 336 337 338 339 340 341 342 342 344 344 346 348 348 349 349 350 350 351 352 352 353 353 352 350 349 347 346 344 344 344 344 344 345 346 348 349 351 354 356 356 357 358 359 360 360 358 358 357 356 355 354 354 352 351 348 345 341 339 339 336 335 336 334 334 346 339 342 336 335 335 330 328 329 328 324 332 330 332 336 339 340 342 346 346
336 336 337 337 338 339 340 341 342 342 344 346 347 348 349 349 350 350 350 351 352 353 353 353 350 349 347 346 346 345 344 345 348 348 348 349 352 353 354 356 356 357 358 359 360 360 358 357 357 356 355 354 355 351 348 346 344 342 339 337 336 340 336 336 334 333 334 338 339 338 343 340 334 330 327 324 323 331 329 330 333 334 337 340 342
334 335 336 337 338 338 338 340 341 343 345 346 346 348 348 349 349 349 350 351 352 353 353 353 350 349 347 347 347 346 345 346 347 348 349 351 350 353 354 356 357 357 357 358 359 359 358 356 356 356 354 353 354 350 348 345 343 341 342 339 338 340 336 336 334 333 335 331 340 336 339 334 332 330 329 329 327 323 325 325 327 331 334 336 337
334 334 335 336 337 337 339 339 342 343 344 344 345 346 348 349 349 349 349 351 351 352 352 352 352 350 348 347 346 348 347 347 349 349 348 351 349 352 354 355 357 357 358 358 359 359 359 356 356 355 354 352 355 349 346 344 342 341 341 339 338 340 337 337 337 335 332 332 335 333 333 331 330 332 332 332 330 323 322 323 327 328 330 333 335
334 335 336 336 337 338 339 340 341 342 344 345 345 346 347 348 348 348 348 349 351 351 352 352 352 352 348 347 346 346 348 348 347 346 347 348 348 350 353 354 356 356 357 358 358 358 358 357 355 354 353 352 354 349 344 342 341 340 340 339 339 339 338 340 337 336 334 334 336 334 332 331 330 329 327 325 325 327 323 322 325 327 329 334 334
333 334 335 336 337 338 339 338 339 341 342 343 344 345 346 346 347 347 348 349 350 350 351 350 351 351 349 348 347 346 346 346 344 345 345 346 347 348 351 352 354 355 356 357 358 358 357 357 355 354 354 354 354 349 344 342 340 340 340 340 340 339 337 338 342 340 337 336 334 335 333 331 329 328 327 327 328 324 324 322 323 325 328 329 333
332 333 333 334 335 336 337 337 338 338 340 341 343 344 345 345 346 346 346 348 349 350 350 350 350 350 350 349 347 347 347 346 345 344 345 345 346 347 350 352 353 355 355 356 356 357 357 355 356 354 353 351 351 349 346 342 341 340 340 340 340 339 339 340 339 338 335 336 335 333 333 331 329 331 329 329 328 327 325 323 324 327 327 328 329
331 332 333 333 333 333 334 335 337 337 338 340 342 343 344 345 345 345 345 347 348 349 349 349 349 349 350 349 348 348 347 347 346 346 346 346 346 347 348 349 351 352 353 354 355 356 356 355 353 352 351 350 351 348 345 342 341 340 340 339 339 339 338 339 337 338 337 335 335 334 333 331 332 331 330 329 330 329 327 325 324 324 327 327 330
330 331 332 332 333 333 334 335 336 337 337 339 341 343 343 344 344 344 345 346 348 349 349 349 349 349 350 349 349 349 347 347 347 346 346 347 347 347 348 348 349 351 352 353 355 356 356 356 354 353 352 350 350 347 344 341 341 340 340 339 339 339 339 339 338 338 337 337 337 336 332 332 332 333 331 330 329 328 326 326 326 326 325 327 329
330 330 331 332 333 333 333 334 335 336 337 338 340 342 343 343 344 344 344 345 346 348 349 348 348 349 350 350 350 349 348 348 347 347 347 347 347 348 348 350 350 351 352 354 356 356 355 355 354 352 351 349 348 347 344 342 341 341 341 339 340 339 339 339 338 338 337 336 335 336 335 335 334 335 332 331 331 331 329 328 329 325 325 326 332
329 329 330 332 333 333 333 334 335 336 337 338 339 341 342 343 344 344 344 345 346 348 348 348 349 349 349 349 349 350 350 349 348 349 348 348 348 348 348 349 351 352 353 354 355 355 355 354 354 353 351 348 347 346 344 341 341 339 339 340 339 340 338 338 337 337 336 337 336 335 336 334 335 334 334 333 332 332 331 331 331 329 325 323 325
328 329 329 331 332 333 333 333 334 335 336 337 338 340 342 343 343 343 344 345 345 347 348 349 349 349 349 349 349 349 349 348 347 347 347 348 349 348 348 349 351 352 352 354 354 355 354 354 353 352 350 348 346 345 344 342 341 340 339 339 338 339 340 337 338 337 337 335 335 335 335 336 335 335 336 335 334 333 333 333 332 329 329 326 324
327 329 330 331 332 333 333 333 334 335 336 337 338 340 341 343 343 343 344 344 345 346 347 348 348 348 348 348 349 349 349 349 348 348 348 348 348 349 349 349 350 352 353 353 354 353 353 355 352 352 350 348 346 345 344 342 341 340 340 339 339 340 339 339 339 338 337 337 337 336 335 335 337 335 336 336 335 334 332 333 332 332 331 327 326
325 326 328 329 330 332 333 333 334 335 337 337 338 339 340 342 343 343 343 344 345 346 347 349 349 349 349 349 349 349 349 349 349 349 349 348 347 348 348 349 350 352 353 353 352 352 352 352 352 351 350 348 347 345 344 342 341 339 339 339 339 339 338 338 338 338 337 337 336 335 336 335 336 336 335 335 335 334 333 333 333 332 331 331 328
323 325 327 328 330 331 332 333 333 334 335 336 337 338 339 341 343 343 344 345 346 346 347 347 349 349 349 350 349 350 350 349 349 349 348 348 348 348 348 348 349 351 352 352 352 352 351 351 351 350 349 348 347 346 344 343 340 340 339 339 339 338 338 338 338 338 337 336 336 335 335 335 335 335 335 335 335 335 334 333 333 332 332 331 331
322 324 325 327 329 331 332 333 334 334 335 336 337 337 338 340 341 343 343 343 344 345 346 347 348 349 349 349 349 349 349 350 349 349 349 349 349 349 349 349 350 350 351 351 351 351 351 351 350 350 349 347 346 346 344 342 341 340 339 339 339 338 337 337 338 337 337 337 336 335 336 335 335 335 335 334 335 335 335 334 333 333 332 331 330
323 323 325 326 328 330 332 333 334 334 334 335 336 337 337 339 341 342 343 343 343 344 345 347 348 349 349 349 349 349 350 350 349 349 349 349 349 349 350 350 349 350 351 350 351 351 351 350 350 349 349 348 346 346 345 342 341 340 339 339 338 338 337 337 337 337 337 337 337 335 335 335 335 335 334 334 335 334 334 333 334 333 333 332 332
323 324 324 325 327 329 331 332 333 333 334 335 336 337 337 338 340 342 342 343 344 344 346 347 347 348 348 349 349 349 350 349 349 348 348 348 349 350 351 350 349 349 351 351 351 351 351 350 350 349 348 347 346 345 345 343 341 340 339 339 339 337 337 336 336 336 337 337 336 336 335 336 335 334 334 334 335 335 335 335 334 334 332 333 333
323 324 324 325 327 328 330 331 332 333 334 334 336 337 338 338 339 341 342 343 344 345 345 346 346 347 349 349 349 349 349 349 348 349 348 349 349 350 351 350 350 350 349 351 351 350 350 350 349 349 348 347 346 346 345 343 341 340 339 339 338 338 337 337 336 336 336 336 336 336 335 336 336 335 334 334 334 336 335 335 335 335 335 334 334
322 323 324 325 325 326 328 330 331 333 334 335 335 336 337 338 339 340 342 344 344 345 345 346 346 346 347 348 348 349 349 349 349 349 349 349 349 350 351 350 350 350 350 350 350 351 350 349 348 348 348 347 347 346 345 343 342 341 340 339 338 337 337 337 337 336 337 336 336 336 336 336 336 335 335 333 333 334 334 335 335 335 335 335 334
321 323 323 324 325 327 328 329 331 332 333 335 336 336 337 338 339 341 341 343 344 345 346 346 346 346 346 347 348 348 348 349 349 349 350 350 350 350 350 351 351 350 350 350 349 349 349 349 349 349 348 348 348 347 345 344 342 341 340 339 338 338 337 337 336 337 337 337 335 336 336 336 335 334 334 335 334 334 334 334 334 334 334 335 334
321 322 323 325 326 326 327 329 330 331 333 334 335 336 337 338 339 341 342 343 345 345 346 346 346 346 347 347 347 348 349 349 350 350 351 351 351 351 351 350 351 351 350 349 349 349 350 349 349 349 348 348 347 347 346 345 344 342 340 339 338 337 337 337 337 336 336 337 336 336 336 336 335 335 335 335 334 334 334 334 335 334 333 333 333
321 323 323 324 325 327 327 328 329 330 332 334 335 336 337 338 339 340 342 343 344 346 346 346 346 347 347 347 348 349 349 350 351 351 351 351 351 351 351 352 352 350 350 349 349 349 349 349 349 349 349 349 348 347 346 345 344 343 341 340 338 337 336 336 337 337 336 336 337 336 336 336 336 336 336 335 335 335 335 334 335 334 334 333 333
318 321 323 324 324 326 327 328 329 330 331 332 334 335 337 338 340 341 341 342 345 345 346 346 346 347 347 349 349 350 350 350 351 351 351 351 351 352 352 352 352 351 351 351 350 350 349 348 349 348 348 348 347 346 346 345 343 342 342 340 339 338 337 336 336 336 336 336 337 337 337 337 338 338 339 338 337 336 334 333 335 336 335 333 333
316 319 322 324 325 326 327 328 329 330 331 331 333 335 336 337 338 340 341 343 344 345 346 346 346 347 348 349 350 351 351 351 350 350 351 351 352 352 352 352 351 351 351 351 351 350 349 348 348 348 348 347 347 347 339 329 333 343 341 340 339 338 337 336 336 336 336 336 336 336 338 340 341 341 341 341 339 338 337 336 336 335 334 333 332
315 318 321 324 325 326 327 328 329 330 331 332 333 334 336 337 338 339 341 342 344 344 345 346 346 348 349 350 350 350 351 351 351 351 351 351 352 352 352 352 352 351 351 351 351 349 349 349 348 347 347 347 347 346 330 326 328 331 340 341 339 339 338 337 337 336 335 336 336 337 337 339 341 342 341 343 341 339 339 338 336 334 335 334 333
313 316 319 322 324 325 326 327 328 330 331 332 333 334 335 336 338 339 340 342 343 344 345 346 347 348 349 349 349 350 351 351 351 351 351 352 352 352 352 352 351 351 351 351 350 350 350 349 349 348 347 347 347 334 327 326 327 327 332 341 340 339 338 338 337 337 336 337 337 337 337 338 339 340 340 342 343 341 336 335 334 333 332 333 333
315 316 320 320 323 325 327 327 328 330 331 333 334 334 335 337 338 340 341 342 342 343 345 346 347 348 348 349 350 350 350 351 351 352 352 352 352 352 351 351 351 352 351 350 350 350 350 350 349 348 347 347 347 333 326 324 326 325 327 335 341 340 339 339 338 338 337 337 337 337 337 337 337 341 341 341 342 342 337 330 332 334 333 331 329
315 317 319 322 324 326 327 328 329 331 332 334 336 335 336 338 339 341 341 342 343 343 345 345 347 347 348 349 350 350 350 351 352 352 353 352 352 351 352 352 352 352 351 350 350 350 350 350 349 349 348 348 348 332 324 322 323 323 325 331 342 340 340 340 339 339 338 338 338 337 337 337 338 339 341 341 340 341 342 341 339 338 339 338 332
317 317 319 322 324 326 327 328 328 330 332 334 335 337 338 339 340 340 342 342 343 344 344 345 346 347 349 349 349 350 350 351 352 352 352 352 352 352 352 352 352 352 351 350 350 350 350 350 350 350 349 348 348 328 322 320 320 320 323 327 342 342 340 340 340 340 340 339 339 338 338 338 338 337 340 341 341 340 341 341 340 338 338 339 338
319 319 319 322 323 325 326 327 331 331 332 334 335 337 337 338 340 341 341 343 343 344 344 345 346 347 348 349 350 350 350 351 351 352 352 352 352 352 352 353 353 353 353 352 352 351 350 350 350 350 349 348 349 325 320 319 318 319 321 334 340 341 341 340 340 340 340 340 340 339 338 337 338 338 336 332 337 340 340 339 339 339 338 338 337
319 321 320 323 326 326 327 332 334 331 332 333 335 337 338 339 340 340 342 342 343 344 344 346 346 348 349 350 350 350 350 351 351 351 351 352 352 352 353 354 352 352 352 351 351 351 351 351 350 350 349 348 349 328 318 317 317 317 321 337 339 340 341 340 340 341 340 340 340 339 338 337 337 337 332 324 329 339 338 337 337 336 336 335 334
317 320 324 325 325 326 329 329 330 331 332 334 336 338 339 339 340 341 342 342 343 344 345 346 347 348 350 351 351 351 350 351 351 351 351 352 353 353 353 353 352 351 351 351 352 352 352 352 350 350 349 348 349 330 315 315 315 315 324 338 339 339 339 340 340 341 340 340 340 342 340 337 337 337 325 322 324 333 335 335 335 334 332 332 331
335 326 322 325 329 328 329 331 330 329 332 335 336 338 338 339 340 341 342 342 343 344 346 346 348 349 350 352 352 352 351 351 352 352 352 352 353 353 354 354 353 353 352 353 352 351 351 351 351 351 338 345 349 332 314 315 314 314 325 340 339 339 338 339 339 339 338 338 338 341 340 337 336 332 320 320 321 330 336 335 334 333 331 331 333
338 338 335 330 334 333 330 329 329 332 334 336 336 338 339 339 339 341 341 341 343 345 347 348 349 350 351 352 353 353 353 352 352 353 353 353 354 354 354 353 353 353 352 352 351 351 350 350 351 350 349 347 349 340 322 314 313 313 318 339 340 338 337 338 339 338 336 336 337 339 336 324 323 320 316 315 316 322 333 333 333 332 331 331 332
338 337 336 332 331 330 330 332 335 337 336 336 336 337 338 339 340 340 340 342 344 346 347 348 349 350 351 352 353 353 353 353 354 354 354 354 354 353 353 353 352 353 353 352 351 350 350 350 350 351 350 349 349 343 326 312 312 312 315 325 340 339 339 339 338 337 337 335 335 337 339 322 317 315 313 312 313 316 325 333 334 333 333 332 329
338 339 336 335 335 335 336 337 337 338 338 337 336 336 337 338 339 339 341 344 345 345 346 347 348 349 350 352 353 354 354 354 355 354 354 353 354 355 354 353 353 352 351 351 351 349 349 349 350 350 350 350 346 333 334 314 313 312 313 318 337 340 340 339 338 337 336 335 335 336 337 324 315 313 311 310 310 314 321 333 333 317 315 320 330
334 334 335 336 335 335 335 335 337 338 337 338 339 336 337 338 338 340 345 349 347 346 347 347 347 348 349 350 352 352 353 354 354 354 353 353 354 354 354 353 353 352 351 350 350 350 349 348 348 349 349 349 349 340 324 323 313 311 311 314 323 332 327 340 338 335 334 334 335 335 334 318 313 310 308 308 309 312 320 327 308 309 314 320 328
334 335 335 335 334 335 336 336 337 339 339 338 339 339 337 336 338 344 346 348 347 346 346 346 346 347 348 349 351 352 353 354 354 354 353 353 353 353 353 352 352 351 349 349 349 349 348 347 346 346 346 347 346 343 323 319 319 312 310 311 316 321 322 336 338 336 335 334 333 333 328 312 308 304 305 307 309 314 325 305 307 313 317 323 328
332 333 335 335 334 334 335 335 336 338 339 339 339 339 339 338 339 341 343 345 344 345 345 345 345 346 346 348 350 351 352 353 354 354 352 352 352 352 351 352 351 351 350 349 348 348 347 346 346 344 343 342 341 339 333 324 318 313 311 310 314 317 319 322 334 335 335 333 324 317 310 306 307 304 306 308 310 312 307 306 309 314 324 326 325
331 331 333 334 335 335 334 333 333 335 337 338 339 339 338 338 341 342 345 346 344 344 344 345 345 345 346 347 348 350 351 352 353 354 353 353 352 351 350 351 350 350 350 349 348 347 346 346 345 344 342 339 337 336 333 329 321 315 314 312 314 317 321 324 328 330 324 320 314 311 308 307 307 310 316 321 322 317 311 311 311 318 324 323 323
328 330 331 330 331 331 331 332 331 332 334 335 336 338 338 339 340 341 345 348 346 344 343 344 345 345 346 346 347 348 349 351 352 353 353 353 353 352 351 349 349 350 350 349 348 346 346 345 344 343 341 337 335 334 332 328 325 321 319 317 320 322 319 322 329 327 320 321 316 315 316 314 314 315 320 318 318 314 315 315 318 320 322 322 322
329 330 330 330 329 328 329 329 329 329 331 333 334 335 336 337 338 340 341 345 348 346 344 344 344 344 344 345 345 348 348 348 350 351 351 352 352 352 351 350 350 350 349 349 348 346 345 345 344 342 339 335 333 332 329 325 322 321 319 322 326 328 329 330 327 326 326 324 320 312 312 318 319 321 321 321 319 318 318 317 317 318 319 321 320
331 331 331 330 330 330 329 329 329 329 329 331 332 334 335 336 336 338 339 341 343 345 346 346 346 347 343 343 344 344 345 346 347 350 351 352 352 351 351 351 353 354 352 351 349 349 347 348 345 340 336 332 331 328 327 318 322 316 319 323 326 328 328 328 322 318 324 321 320 321 320 320 321 320 319 319 319 318 318 317 317 316 316 318 320
335 335 335 335 334 331 330 329 329 329 329 330 332 334 335 337 337 337 337 339 340 339 338 338 339 342 342 344 344 345 344 343 344 346 348 349 336 323 339 352 351 338 332 330 330 347 349 347 341 338 337 332 330 331 315 308 308 308 309 313 316 315 314 320 314 314 321 321 321 321 321 321 320 319 319 318 318 318 317 315 315 314 315 317 319
334 334 334 334 334 335 332 331 329 329 330 332 333 334 335 337 337 336 335 335 336 336 334 334 333 333 332 333 334 335 335 335 337 339 340 340 340 338 312 309 309 316 323 318 314 318 319 326 335 334 330 323 322 314 305 304 303 304 305 306 306 306 306 306 309 320 323 322 321 321 321 321 320 320 319 318 318 317 317 316 315 315 317 317 317
Wind_Speed
13 14 14 14 14 13 13 12 12 13 12 13 13 13 14 14 13 14 11 11 10 10 9 9 9 8 7 9 9 8 7 7 7 7 7 7 7 7 7 6 7 7 7 7 7 6 6 5 5 5 4 5 5 6 6 5 4 3 2 1 3 1 1 1 1 1 0 1 3 3 4 4 3 4 3 1 2 0 1 1 1 2 2 3 3
9 12 14 14 13 14 13 11 12 14 13 14 15 15 14 14 14 13 10 11 11 11 10 10 10 10 9 9 7 7 7 8 8 7 7 6 7 7 7 7 7 8 7 7 7 7 6 6 6 6 5 5 5 4 3 3 3 3 3 2 1 3 3 2 3 3 1 3 2 2 3 3 4 4 4 3 2 1 1 1 1 1 2 3 3
12 13 14 14 16 16 14 13 13 16 16 17 16 14 14 14 13 12 12 12 12 11 11 11 10 9 9 7 8 6 6 6 6 6 5 7 7 7 7 7 8 8 8 7 7 7 7 6 6 5 6 4 4 4 4 4 3 4 5 4 2 1 1 2 4 3 2 1 1 2 0 1 2 3 2 4 3 2 2 2 2 1 2 2 1
17 17 18 16 16 15 15 14 15 14 14 14 14 16 14 13 13 14 13 13 12 13 13 11 11 9 7 6 6 7 5 4 4 4 6 6 8 8 7 8 8 8 8 7 6 7 7 7 6 5 5 5 6 5 4 4 4 3 4 4 3 3 2 1 2 3 3 5 2 0 1 2 1 2 2 3 3 2 2 1 1 1 1 2 1
17 15 15 16 16 18 18 16 14 15 15 15 16 15 13 17 17 17 14 14 13 13 13 11 9 8 6 4 3 4 2 4 5 6 7 8 7 7 9 7 8 8 7 7 6 7 7 6 6 6 6 5 4 5 5 5 5 5 5 5 5 4 3 2 1 2 3 2 4 3 2 1 2 1 1 2 3 1 2 1 0 1 1 0 0
14 17 19 20 19 17 16 16 16 16 16 16 16 17 16 15 15 14 12 12 13 14 14 11 11 10 9 8 8 8 8 8 10 11 8 9 10 7 5 7 8 7 7 7 7 6 7 7 7 6 6 5 5 5 4 4 5 5 6 6 6 4 4 3 2 1 2 4 4 1 3 2 4 2 2 2 2 2 1 2 1 0 1 1 1
13 13 12 14 16 16 17 18 18 18 18 16 15 16 16 13 14 15 14 12 12 12 14 12 11 11 13 13 11 11 11 10 7 6 8 7 6 7 7 7 8 8 7 7 6 6 6 6 7 6 6 6 4 5 5 6 5 6 5 5 6 4 3 4 5 4 2 1 2 1 1 2 4 6 3 3 2 1 2 1 1 0 1 2 2
15 17 17 18 18 19 21 21 19 20 19 16 16 15 16 16 15 15 13 13 12 12 14 13 13 12 12 12 11 11 12 11 8 7 5 6 7 7 6 7 7 7 7 7 7 7 6 6 6 6 6 5 5 7 6 5 4 3 5 6 4 5 6 5 5 3 4 2 1 2 3 3 2 2 4 6 4 5 3 1 1 1 1 2 2
17 16 18 19 20 20 20 19 21 21 18 17 17 17 17 16 16 15 15 14 13 15 15 15 13 13 13 12 11 10 10 8 5 5 6 6 8 6 7 7 6 6 7 7 7 7 6 7 7 7 6 6 5 5 5 6 7 7 6 4 5 4 5 4 4 5 4 4 3 1 2 3 3 2 3 3 4 4 2 3 3 1 1 3 4
15 17 17 17 18 20 21 20 19 18 16 17 17 16 16 15 16 17 17 14 14 16 15 16 16 13 12 12 14 12 9 7 6 7 7 7 8 8 7 7 6 6 6 6 7 7 7 6 6 8 7 6 5 6 6 6 6 6 7 7 6 6 4 4 6 5 5 4 4 4 3 2 2 2 2 3 4 2 5 5 4 5 4 4 3
15 16 17 17 18 18 16 17 18 16 13 13 14 13 14 15 16 18 19 15 15 17 17 18 16 14 14 15 16 15 13 10 8 7 7 7 8 8 8 8 6 6 6 7 7 8 8 7 7 7 6 5 5 6 7 7 6 7 6 6 6 7 5 5 4 4 4 4 4 5 5 5 5 5 5 4 4 3 2 2 2 3 4 4 4
16 15 16 17 15 15 14 16 15 15 13 13 13 13 13 13 14 17 16 16 15 15 16 17 16 16 14 15 16 15 13 11 12 11 10 11 10 10 8 6 6 5 7 7 8 9 8 8 8 6 6 6 6 6 6 7 6 6 5 6 5 6 5 5 5 5 5 4 4 3 4 4 2 2 3 4 6 5 6 5 6 2 1 4 3
16 17 16 16 16 17 17 18 16 15 15 16 16 15 14 14 16 17 17 16 15 15 17 17 16 16 15 15 15 13 13 13 12 11 10 10 9 9 8 8 7 6 8 8 10 11 9 8 8 8 8 6 7 7 7 7 6 6 6 6 6 6 6 6 5 6 6 6 6 5 4 3 5 2 2 3 1 2 5 4 0 0 4 4 2
19 18 17 17 17 17 18 18 18 16 17 17 17 16 14 15 17 18 19 17 16 16 17 17 17 17 16 15 15 13 13 13 12 12 11 10 9 10 10 10 9 10 9 11 8 9 9 9 9 9 8 7 7 7 7 7 7 7 7 7 7 6 5 7 7 6 5 6 3 4 4 4 4 2 3 4 3 4 3 5 4 1 0 2 1
18 17 18 19 19 18 17 18 17 17 18 18 16 16 15 15 16 19 18 17 18 18 16 18 16 16 15 15 14 12 13 12 12 11 11 11 10 10 10 9 9 9 10 9 7 9 10 9 9 9 8 7 7 7 6 7 7 6 6 7 6 6 6 6 6 6 5 6 5 5 5 4 4 3 4 4 4 4 5 5 6 5 0 1 1
18 18 19 19 19 17 17 16 17 17 18 17 18 16 16 17 18 19 20 19 19 18 17 18 17 15 16 16 15 14 12 11 10 10 10 11 11 11 11 10 10 9 8 7 9 9 9 10 9 9 7 7 7 8 8 7 7 7 6 6 6 4 6 7 6 6 6 6 6 4 3 5 4 4 4 4 4 5 4 5 5 6 6 4 1
18 19 19 21 18 17 18 18 17 17 16 17 18 18 20 18 17 19 19 17 18 19 19 17 17 16 17 16 15 14 14 14 13 14 14 12 11 11 11 11 10 8 8 8 8 8 8 10 9 9 8 8 8 8 8 7 7 7 7 7 7 6 6 8 6 6 6 6 5 6 6 5 4 3 3 3 4 3 4 5 6 7 6 4 3
22 22 21 20 20 21 20 19 19 19 20 20 20 19 18 17 18 19 18 18 18 18 18 17 17 17 16 16 16 16 15 15 14 13 12 11 11 10 10 9 10 10 8 7 9 8 8 9 8 8 7 7 9 7 8 8 7 7 7 7 7 6 7 5 6 6 6 5 5 4 4 4 3 3 4 3 4 5 5 5 5 4 5 6 5
15 17 16 16 18 19 19 20 20 20 20 20 20 19 16 16 17 18 19 20 20 17 17 15 16 14 14 16 17 16 14 14 13 13 11 12 13 12 12 12 11 9 8 8 9 8 8 9 9 8 8 8 8 8 8 8 8 7 7 6 6 6 6 7 6 6 5 5 6 6 4 4 3 3 3 3 3 4 5 4 3 3 4 5 5
17 18 18 19 20 22 22 22 21 20 18 18 18 16 17 18 17 17 17 16 15 15 15 16 17 15 14 14 14 14 14 14 14 13 12 13 14 13 13 12 11 10 10 10 9 9 9 9 7 8 8 7 8 8 8 8 8 8 7 7 6 7 7 8 6 5 4 6 7 7 6 6 4 3 3 3 4 3 4 4 5 5 4 3 4
17 18 18 20 20 20 21 20 20 19 18 17 16 18 19 17 18 19 19 19 18 18 17 17 15 15 15 16 15 15 15 13 14 14 13 13 13 12 12 11 10 10 10 10 10 11 11 11 10 10 10 10 10 9 8 8 8 9 8 8 7 8 9 7 6 6 5 6 7 7 7 6 5 5 5 4 3 4 3 3 3 4 4 4 5
17 18 18 19 19 19 19 19 17 16 16 16 15 16 16 16 18 18 18 17 19 18 17 16 15 15 17 16 16 15 14 14 15 14 14 13 13 12 11 10 11 11 11 12 12 10 10 11 10 11 10 10 10 11 9 9 9 9 9 6 7 8 9 8 7 7 7 6 6 7 7 6 6 6 5 5 5 4 5 4 4 5 6 5 5
16 16 15 16 16 18 19 20 19 19 18 18 17 17 17 19 19 17 18 20 20 20 18 15 15 15 17 16 15 14 15 15 16 14 14 14 12 11 10 11 11 10 10 11 12 11 11 11 11 11 11 11 11 11 10 10 10 11 10 8 8 9 10 9 8 8 8 7 7 7 7 6 4 5 5 6 5 5 5 6 6 5 6 6 5
12 10 11 13 14 14 13 15 16 16 15 17 17 17 17 17 18 17 20 21 19 17 16 16 16 16 16 15 15 15 16 16 15 15 17 14 12 11 10 11 11 10 11 10 11 12 11 11 12 11 11 11 11 11 11 10 11 11 11 11 10 10 10 10 10 8 8 8 8 8 6 6 6 7 7 6 6 6 6 6 6 5 6 6 5
9 9 10 10 10 12 15 16 16 16 16 16 17 17 17 17 17 18 20 20 18 16 16 17 17 17 16 16 17 16 16 17 17 14 15 13 12 11 10 12 11 11 11 10 10 10 11 12 12 13 12 12 13 13 12 10 10 10 11 11 10 10 10 10 9 9 8 8 8 9 7 7 7 8 7 6 5 7 6 6 7 6 6 5 4
10 9 8 12 15 15 14 14 14 15 16 16 16 17 17 17 19 19 19 17 18 16 17 16 16 17 17 18 17 16 18 18 17 16 16 14 12 13 12 10 11 12 11 11 12 11 12 13 13 13 13 13 13 13 13 12 11 10 11 10 9 9 9 9 8 8 8 8 8 9 8 8 9 10 9 7 7 8 6 7 7 6 6 5 5
13 13 13 11 10 14 16 16 16 16 16 16 16 17 17 16 18 18 17 17 17 16 16 17 17 18 17 18 18 18 17 17 16 16 14 14 14 12 12 12 11 12 11 10 11 12 12 13 13 13 13 13 13 12 12 12 12 11 11 11 10 9 9 8 8 8 8 8 8 8 8 8 9 9 9 9 8 8 7 8 8 7 7 7 6
6 6 8 13 16 16 16 16 16 16 16 16 16 17 18 18 18 17 17 16 14 16 16 16 16 16 17 19 18 18 16 16 15 14 15 15 15 14 14 13 12 13 12 13 12 13 12 12 13 13 13 12 12 12 12 12 12 12 11 11 10 9 9 8 8 8 8 8 8 8 8 9 10 10 10 10 9 9 6 7 7 6 7 7 6
6 8 10 13 14 14 16 16 17 17 16 17 16 15 14 14 14 14 15 17 17 16 17 18 17 18 19 19 17 15 14 14 15 15 15 15 15 14 13 12 13 13 12 13 13 13 13 13 13 13 12 11 12 12 11 12 12 12 11 10 10 10 9 9 8 8 7 8 8 8 9 9 10 12 12 10 9 10 8 9 7 7 6 7 6
11 12 12 13 15 15 15 16 16 17 17 17 16 15 16 17 17 16 17 17 15 17 17 17 18 19 18 16 15 14 14 14 14 15 15 15 14 13 13 14 14 14 13 13 12 13 14 15 14 13 12 11 12 10 13 18 16 12 12 10 10 10 10 10 10 8 8 9 9 8 8 13 14 14 15 16 15 16 15 11 9 8 9 8 8
10 9 11 12 14 13 12 12 14 16 18 18 18 18 18 18 17 17 18 17 17 17 17 17 19 19 17 15 14 14 14 15 16 15 14 14 14 13 14 14 14 14 14 13 13 15 15 14 14 13 13 12 12 11 17 18 19 18 13 11 11 10 10 11 9 10 10 9 8 8 7 11 13 14 14 18 17 18 17 17 14 14 12 11 8
10 10 10 11 12 12 13 15 17 18 18 17 17 16 16 17 17 17 17 15 16 16 18 19 19 16 15 16 16 15 15 16 15 16 15 15 14 14 15 15 14 14 13 13 15 16 15 14 13 12 12 13 13 15 18 19 19 20 17 12 10 9 9 9 10 11 10 9 8 8 8 6 8 11 10 11 14 17 17 17 16 14 15 16 14
10 8 10 12 14 15 15 16 16 17 17 18 19 17 18 18 17 18 14 15 17 18 18 17 16 15 16 16 15 16 17 16 16 16 14 14 15 15 15 15 16 15 13 16 17 16 15 14 14 15 15 13 12 16 18 20 20 20 20 16 10 11 9 9 10 11 11 11 10 8 7 7 7 14 10 8 8 10 14 16 16 15 16 16 16
8 8 10 12 11 11 14 17 18 18 20 20 17 19 20 19 18 14 14 16 17 17 16 17 15 16 16 16 16 16 17 17 16 15 15 15 15 17 16 15 14 13 15 15 15 16 15 15 15 15 13 13 15 15 19 20 20 21 21 18 11 12 10 10 12 11 10 11 11 10 8 7 7 8 9 9 8 7 8 8 9 10 9 11 12
10 8 10 11 12 12 11 11 12 14 12 10 11 13 10 8 9 14 16 16 17 17 17 16 16 16 15 14 16 16 17 15 15 15 15 16 17 16 16 14 14 15 16 16 16 16 15 15 16 14 13 14 13 17 19 21 21 22 21 19 12 11 10 11 11 12 12 12 11 9 9 7 7 7 7 9 8 8 7 6 7 8 8 7 7
11 9 8 8 11 13 14 15 14 12 11 12 14 12 12 13 13 15 15 15 16 16 17 15 15 15 16 16 16 16 15 14 15 15 16 17 16 17 17 15 13 13 13 13 13 14 15 15 14 14 15 15 12 18 20 21 22 21 22 13 12 12 12 12 12 12 12 10 9 10 10 9 8 8 11 14 12 8 7 7 8 7 7 4 4
9 7 9 5 4 5 7 4 2 6 9 11 10 10 12 12 13 15 15 16 15 16 16 16 17 16 17 16 16 17 16 16 16 16 17 17 17 16 15 13 14 14 13 14 15 14 14 14 15 15 16 15 13 16 21 22 22 23 17 12 12 11 11 12 12 12 10 9 8 9 10 9 9 9 12 15 15 11 8 8 8 7 5 4 4
7 5 4 4 5 5 3 3 4 6 10 8 10 12 12 13 14 13 13 14 15 16 16 15 16 16 17 17 17 16 16 17 17 18 19 18 17 14 15 14 15 14 14 14 13 13 14 14 15 16 17 16 15 15 22 22 23 23 20 14 12 11 12 12 11 9 8 8 10 16 12 10 10 10 13 15 15 13 9 9 8 6 6 5 4
5 5 4 3 3 4 4 5 7 9 6 8 11 13 14 13 13 14 15 16 17 18 16 16 17 16 16 15 15 16 16 16 17 18 17 17 17 16 14 13 13 13 14 13 12 13 13 13 15 16 17 18 14 14 21 22 23 23 20 13 12 10 11 11 10 9 8 8 8 11 15 12 11 10 15 15 16 13 9 9 8 7 7 8 5
4 5 3 2 1 3 4 4 5 5 5 5 7 9 11 12 14 14 14 16 16 16 14 15 15 13 13 14 14 16 16 17 18 17 15 15 13 11 13 14 13 12 12 12 12 13 14 13 12 14 11 15 15 11 18 22 23 24 24 15 11 10 11 12 10 9 8 7 8 8 12 15 15 15 15 16 15 16 10 8 7 8 7 8 5
9 9 7 8 9 7 6 6 4 1 4 6 8 9 10 10 9 11 15 16 13 10 11 12 11 11 13 14 14 16 18 17 16 15 14 13 13 14 14 14 14 11 11 11 14 12 12 14 13 13 13 15 14 12 14 22 23 23 24 19 11 12 12 10 10 10 9 9 8 8 8 13 16 16 16 16 16 16 12 8 8 7 7 4 7
8 10 10 9 10 10 10 11 9 9 2 5 6 8 8 7 9 13 17 15 12 13 12 12 12 14 14 14 15 14 14 13 12 12 13 14 14 13 13 14 12 12 13 14 13 12 13 13 12 12 13 13 13 16 12 19 22 23 23 23 12 13 13 11 10 9 8 8 9 8 8 12 17 15 15 16 16 15 14 8 7 7 10 12 8
10 12 11 10 11 12 12 10 9 8 8 4 3 7 6 6 9 13 6 2 4 6 8 9 11 13 14 15 15 16 14 12 13 14 15 15 12 13 14 14 14 14 14 15 14 13 12 12 11 11 11 11 11 11 18 16 20 22 23 22 20 15 14 11 10 10 10 9 8 8 8 14 16 16 15 15 15 15 10 6 10 10 11 12 8
10 9 7 8 10 10 10 10 9 10 9 7 5 2 5 7 8 1 2 2 4 5 5 7 8 9 9 10 11 12 12 11 14 14 14 14 14 15 14 13 14 14 14 14 14 13 13 13 13 11 10 9 9 8 12 19 18 22 21 24 21 15 17 12 11 10 9 9 8 8 9 16 16 15 15 15 13 11 7 11 11 11 11 9 5
10 9 7 8 10 10 10 11 10 10 11 10 8 4 1 2 5 5 1 3 5 5 7 7 8 8 9 8 8 10 12 12 13 14 15 15 16 15 15 15 14 14 14 15 15 14 14 14 13 12 11 9 9 9 9 14 22 22 22 22 20 16 17 15 11 7 9 8 10 13 14 15 15 14 13 12 10 9 11 11 11 11 9 4 5
7 8 7 6 7 9 11 12 11 11 9 9 9 9 9 6 7 6 4 3 3 6 7 9 9 9 10 10 11 12 13 15 16 15 16 16 16 15 15 14 15 16 16 17 16 16 16 15 14 12 12 11 12 10 11 11 12 15 16 19 18 15 17 17 13 11 14 14 14 14 15 14 12 13 11 8 7 7 10 10 9 9 5 4 5
14 11 9 9 9 9 10 10 11 9 8 8 8 8 6 5 6 6 7 5 3 5 7 7 8 9 9 10 13 11 11 12 13 12 12 12 11 12 13 12 13 14 15 16 15 15 16 15 15 13 12 12 12 11 11 10 10 10 8 9 10 9 13 13 10 9 10 10 12 12 10 11 10 11 11 11 10 11 8 6 5 5 4 4 4
9 11 12 12 13 11 9 9 8 7 6 6 6 7 7 6 6 6 6 6 5 3 4 5 5 5 6 8 9 12 12 10 11 12 12 11 11 12 13 14 16 16 16 15 15 16 16 16 16 14 13 12 11 11 12 12 11 10 9 9 9 9 10 9 9 9 9 10 10 12 13 10 10 9 8 7 6 5 6 6 4 4 5 5 3
9 8 9 9 8 10 10 10 9 7 6 6 7 6 5 7 6 6 6 5 5 3 2 2 2 3 5 5 6 7 8 10 10 11 12 13 14 14 15 16 18 17 18 19 18 17 16 15 13 14 15 12 10 11 11 13 19 21 20 15 13 12 10 9 12 15 12 10 10 9 9 10 9 10 9 7 6 6 6 5 5 5 4 5 5
8 7 9 9 9 8 8 8 8 8 8 8 8 7 6 6 5 5 5 6 4 4 5 5 4 3 2 1 1 1 1 3 5 6 8 9 7 9 12 16 17 21 24 23 19 17 17 12 10 10 14 16 15 11 13 18 22 25 25 25 20 18 15 14 17 21 15 11 10 10 10 10 10 9 9 8 7 7 6 5 5 5 5 6 5
8 9 8 8 7 8 8 8 6 6 8 8 8 8 8 8 7 7 6 6 4 5 4 3 3 3 3 2 2 2 2 2 2 1 3 6 8 9 11 15 20 23 17 20 17 13 16 19 19 16 16 27 25 23 22 17 18 19 20 19 20 19 21 22 22 17 12 11 11 11 10 9 10 9 8 8 8 8 7 6 6 6 6 5 5
Wind_Direction
192 191 194 195 194 189 187 183 185 185 184 181 181 185 185 185 183 191 189 183 185 187 191 192 192 196 203 206 209 204 205 205 211 209 209 211 211 212 209 208 209 212 210 199 197 193 189 184 185 185 175 175 182 202 194 191 188 169 159 171 186 223 287 103 261 79 1 302 36 49 52 358 4 21 17 343 274 81 104 116 94 96 85 90 89
179 191 195 194 195 192 188 187 185 184 189 183 188 188 187 186 189 189 182 187 191 191 189 193 197 199 197 204 201 202 199 204 213 210 211 210 211 210 210 208 209 210 209 200 196 190 183 182 187 187 174 188 198 184 178 182 166 144 134 106 29 185 223 198 186 124 30 162 166 285 34 2 30 21 26 3 344 328 94 102 69 78 82 85 97
190 197 195 195 194 191 190 191 191 192 187 188 191 186 187 190 192 186 190 188 192 189 190 197 198 200 197 195 195 203 210 211 213 210 201 208 212 209 206 208 208 212 207 195 192 191 190 183 190 179 183 178 173 178 176 181 174 170 169 180 173 68 220 208 186 195 163 106 120 121 9 76 0 2 1 33 360 8 9 26 11 39 66 64 71
194 195 195 194 193 191 192 193 194 192 191 193 188 190 190 193 191 191 192 191 190 193 195 196 196 197 199 191 188 194 193 194 200 203 205 208 217 208 206 205 207 210 202 192 188 190 190 191 184 177 183 181 179 176 176 187 168 166 171 195 151 166 310 282 170 175 140 145 163 170 167 137 73 276 310 0 2 38 33 33 28 358 51 59 52
194 192 194 196 195 197 195 194 190 193 194 193 191 191 193 194 193 192 191 192 192 192 192 188 187 190 191 173 160 187 187 171 187 211 205 210 214 205 211 200 205 209 201 190 183 191 193 193 183 184 176 178 172 178 183 191 178 177 174 175 181 178 216 248 338 146 167 123 131 111 71 25 218 219 86 340 351 92 21 51 61 24 357 11 0
197 196 197 196 197 196 196 193 193 197 199 198 195 195 195 195 192 191 191 191 193 192 188 182 189 188 179 184 191 194 207 199 205 206 197 203 212 206 191 198 202 207 201 190 191 184 192 191 187 177 177 170 179 184 172 153 174 181 186 181 191 197 172 171 265 161 165 174 173 158 164 171 180 190 109 195 355 20 338 59 46 38 347 289 322
202 204 202 204 205 202 200 197 197 197 202 197 195 198 197 193 192 190 192 193 191 188 186 187 189 191 193 197 199 199 206 220 212 198 197 200 189 189 197 195 204 202 197 192 190 191 193 190 188 186 178 173 174 163 173 186 182 191 164 175 195 164 132 184 208 215 64 138 184 159 176 241 149 138 188 76 149 303 15 4 84 348 321 286 279
199 201 201 202 201 202 202 201 199 201 199 192 196 195 194 192 189 191 192 190 188 187 188 190 192 193 195 200 202 205 209 216 200 197 179 170 189 196 188 199 199 201 195 193 191 192 189 189 188 182 177 173 176 192 188 183 175 181 176 192 174 170 176 181 213 190 181 226 157 141 100 103 97 75 151 163 154 167 218 353 359 358 238 253 267
201 200 201 202 203 205 206 205 206 204 196 192 195 194 193 192 189 190 192 190 189 187 188 193 195 194 196 197 203 212 212 215 184 172 176 179 188 193 195 197 193 195 196 190 193 193 188 187 182 180 179 178 181 174 183 173 185 177 170 171 187 190 185 192 167 202 186 177 142 9 54 63 58 48 108 83 131 141 255 191 185 350 299 268 252
209 208 205 206 208 209 207 207 206 208 202 199 197 192 191 189 190 189 193 192 188 188 190 193 195 193 196 199 204 208 205 200 171 181 185 178 194 197 200 197 193 191 195 194 195 194 190 185 184 186 187 175 180 177 170 176 186 188 184 188 187 188 195 182 195 195 197 189 184 153 128 64 54 85 61 89 42 82 168 201 195 176 206 251 255
208 208 207 208 209 212 210 208 211 208 205 204 203 198 193 191 191 192 195 192 188 189 189 193 194 194 198 199 203 205 200 190 179 187 180 178 196 202 201 205 193 192 186 197 199 196 196 188 185 190 179 174 176 167 184 185 186 185 183 186 184 192 190 192 214 190 185 184 163 172 182 180 179 177 187 180 137 143 89 203 199 207 216 245 258
208 207 210 210 208 211 207 215 211 207 203 203 202 198 196 194 193 196 197 194 191 191 191 195 194 197 200 199 203 206 197 193 194 195 188 192 196 202 203 195 197 187 190 195 204 202 196 198 194 180 176 175 185 185 183 188 180 177 176 184 193 203 194 182 197 198 189 200 197 181 194 189 175 177 190 171 174 181 169 184 190 130 310 240 295
206 208 207 207 206 205 203 211 207 202 202 202 200 196 194 195 194 196 199 195 194 191 193 196 196 198 199 199 204 202 198 198 198 199 192 195 195 200 193 202 192 191 200 202 208 198 195 195 192 192 193 188 192 182 188 185 182 181 184 186 192 193 197 190 193 202 190 194 205 191 181 176 213 230 137 154 58 109 141 114 0 355 193 240 256
207 206 206 206 205 205 203 207 203 201 200 201 200 196 194 195 195 197 199 194 194 193 195 196 199 200 199 199 201 198 200 199 199 199 195 196 194 200 200 202 198 205 199 209 200 194 200 200 193 195 194 187 189 185 182 184 181 183 182 188 195 205 192 194 203 202 195 211 189 174 196 194 215 164 157 142 151 125 138 153 145 80 16 243 349
206 206 206 207 207 204 202 204 204 202 200 198 197 198 194 197 196 198 199 196 195 195 195 198 200 201 201 201 200 197 200 199 201 199 194 195 197 200 205 203 202 206 205 207 188 193 198 198 198 195 190 185 184 180 179 180 183 178 184 195 198 194 195 193 203 193 197 198 193 197 195 201 196 177 157 181 150 175 165 164 153 151 190 30 307
203 206 209 209 208 205 204 203 203 204 201 199 198 196 196 199 197 198 199 195 195 195 198 198 200 200 200 200 201 199 200 199 201 198 199 198 196 198 203 204 207 204 204 189 194 192 193 197 197 199 187 185 184 184 181 181 178 180 188 186 202 178 192 193 206 190 205 201 201 186 172 214 190 176 186 161 184 177 164 155 163 160 168 231 316
201 205 206 206 204 204 205 204 203 202 200 200 200 196 198 197 196 198 201 197 196 198 198 198 200 199 201 201 199 199 198 198 200 200 199 198 198 199 200 203 203 200 198 192 187 189 190 193 195 197 189 189 184 184 184 184 178 183 187 189 202 189 193 206 197 192 207 191 191 187 199 206 199 168 174 178 174 158 175 171 176 173 169 169 190
204 206 205 202 200 201 203 204 202 200 199 200 202 199 198 196 197 198 198 197 199 198 199 199 200 202 202 202 202 200 199 200 201 201 197 195 201 203 202 196 199 200 194 189 187 186 189 190 191 192 189 184 190 183 186 183 178 191 193 197 200 187 197 206 203 200 201 184 191 180 187 211 179 170 190 172 166 177 166 178 190 186 160 186 193
206 211 207 204 203 204 204 205 205 203 200 200 201 196 195 196 198 198 199 201 199 197 199 200 200 201 201 201 200 200 201 201 202 201 194 197 200 201 200 201 197 189 188 186 185 186 186 192 194 192 188 190 189 191 188 185 180 194 191 196 188 184 196 207 204 193 197 178 189 195 181 202 173 189 173 166 166 163 174 167 168 150 188 184 180
206 207 204 203 203 202 202 203 203 202 202 203 199 194 195 197 196 199 203 203 201 200 199 201 201 201 202 201 203 202 200 200 200 198 197 200 201 200 201 200 196 188 192 189 188 188 187 190 188 188 186 186 189 193 187 186 186 200 193 190 187 183 197 209 200 196 194 189 190 197 188 188 179 170 169 175 177 178 161 167 168 176 179 162 148
208 207 203 203 204 203 204 205 205 203 202 199 193 192 196 194 195 197 197 198 200 202 199 203 198 202 200 200 200 199 201 202 203 202 202 202 202 202 201 200 192 194 186 186 189 191 191 193 191 192 191 191 193 195 194 190 193 200 201 199 188 187 203 209 198 198 200 191 197 204 196 184 165 172 175 170 176 172 164 166 163 161 168 168 167
211 209 203 203 203 202 204 204 204 201 201 197 195 196 195 193 198 198 198 199 201 201 201 201 197 198 200 200 199 198 199 200 202 202 205 203 202 201 198 192 197 197 188 188 191 191 192 191 192 196 195 194 194 198 194 192 195 200 203 194 196 193 207 212 198 209 193 198 195 204 205 177 170 176 168 176 177 171 173 169 179 177 182 181 194
213 210 205 202 202 201 199 200 199 198 198 196 193 194 194 195 196 196 197 202 200 202 200 197 197 198 200 199 196 197 197 199 202 204 206 204 202 200 193 195 195 195 194 193 190 189 190 191 196 196 195 196 196 199 199 196 199 199 202 201 202 202 207 210 207 209 196 190 199 205 209 178 156 173 184 187 179 181 181 183 188 185 192 190 187
223 211 206 202 203 200 198 202 203 201 198 195 194 196 196 196 195 194 200 203 201 201 196 196 199 201 198 196 198 198 196 199 202 205 206 204 200 198 193 197 195 193 194 196 191 189 189 191 197 197 197 197 198 201 201 199 200 198 201 204 203 205 209 212 211 204 194 190 200 204 210 175 167 187 192 189 189 179 183 191 193 195 195 192 190
219 207 204 194 193 194 201 202 200 199 197 195 195 195 195 196 193 197 204 201 200 197 195 197 198 199 196 198 200 197 199 201 204 203 204 200 200 197 195 197 192 197 195 192 194 190 190 193 198 199 198 199 201 201 202 200 199 199 202 204 203 205 208 209 208 207 199 197 200 210 198 176 177 196 198 198 179 188 189 188 199 190 194 196 182
213 206 186 187 196 199 199 200 200 198 196 195 196 196 196 195 196 199 201 195 199 194 197 197 196 197 198 200 200 199 201 201 201 203 203 199 197 199 198 195 194 198 195 196 195 193 194 197 201 201 200 201 200 201 202 200 195 197 202 203 203 203 204 202 204 202 199 197 205 207 196 182 186 200 207 188 183 195 184 197 199 191 192 185 191
209 203 199 193 194 199 199 198 198 195 195 195 195 196 197 196 199 199 199 197 196 193 195 196 196 198 200 202 201 202 200 198 198 199 198 197 198 196 194 195 192 196 194 196 199 199 200 201 204 202 203 201 200 201 201 200 199 199 198 199 200 200 197 198 206 202 197 199 204 203 197 192 196 205 206 189 186 191 194 202 198 197 187 186 192
233 211 194 192 200 201 198 196 194 195 195 197 197 196 195 195 198 197 196 195 194 194 195 197 196 199 202 204 204 202 199 198 196 196 197 198 197 197 197 194 189 194 197 200 198 201 203 204 206 205 205 200 199 201 201 201 200 198 196 199 198 193 192 199 204 200 197 202 201 201 200 197 204 207 204 203 186 195 192 202 201 197 189 187 194
230 220 205 202 203 201 200 195 195 192 192 195 196 197 198 200 201 196 194 197 192 191 194 196 196 200 204 204 202 199 198 196 195 196 198 198 197 197 194 192 193 196 199 200 200 200 203 207 209 206 203 199 200 204 202 198 198 198 196 194 194 193 194 200 201 196 198 202 201 205 205 203 206 205 201 203 197 197 190 204 202 185 187 193 195
221 218 209 207 208 204 202 196 193 190 192 192 194 195 196 196 196 193 195 198 187 194 195 196 199 203 205 202 198 196 195 194 195 197 198 197 196 194 193 195 197 197 197 196 197 201 205 208 206 205 202 201 205 207 204 196 194 194 192 193 191 197 198 203 200 199 202 203 207 206 207 210 205 198 203 206 206 210 208 207 198 188 196 199 203
228 224 216 212 212 207 201 198 198 194 193 191 193 196 196 197 196 193 196 193 187 194 194 196 202 203 200 196 195 197 193 195 197 197 196 195 195 193 196 198 198 196 195 193 196 203 207 208 207 203 202 204 208 209 199 190 194 191 189 190 192 195 198 199 200 203 208 205 210 207 208 210 206 203 210 212 211 211 216 218 211 199 198 198 200
240 223 215 214 214 207 196 197 198 199 196 194 194 195 192 197 195 196 196 187 190 194 196 200 203 198 194 195 196 193 194 198 195 197 194 194 194 195 198 198 197 197 195 193 200 206 207 206 207 204 205 207 210 209 190 189 190 190 189 190 191 193 192 197 202 206 211 213 207 203 205 199 207 207 206 212 213 215 216 218 217 212 211 211 205
247 232 215 214 210 205 200 200 200 198 197 199 194 189 192 196 193 198 184 182 192 196 199 202 200 194 195 196 193 193 197 196 196 195 192 191 195 198 199 197 199 197 193 198 204 204 206 205 205 207 210 207 212 203 189 187 188 189 191 190 195 195 188 196 202 204 211 212 211 208 201 200 212 211 204 205 209 218 216 216 218 219 221 220 222
256 238 220 219 215 210 206 202 198 199 199 199 192 192 197 195 193 179 178 189 191 196 198 201 196 196 197 194 192 194 197 198 193 190 191 193 196 200 200 199 198 195 199 204 206 206 206 205 207 209 208 209 214 198 188 186 186 188 191 192 199 194 199 201 204 205 209 210 209 207 200 202 196 199 207 205 204 207 210 208 215 221 225 231 229
254 248 230 217 211 212 211 208 208 204 201 190 196 204 197 181 174 181 189 189 193 194 196 197 196 197 194 193 194 197 199 195 192 191 192 196 198 200 200 199 197 198 200 204 205 206 207 206 207 207 207 211 215 191 185 184 185 188 191 192 199 197 202 206 208 211 210 210 208 201 200 199 181 192 196 200 198 201 200 204 208 214 221 215 204
254 248 247 223 212 208 205 208 205 193 186 188 196 189 180 186 183 187 189 192 193 194 198 194 195 194 194 195 194 196 196 193 192 193 195 198 199 200 200 198 199 203 205 206 209 209 209 209 207 206 209 213 212 185 183 183 186 188 186 190 199 201 203 206 212 212 209 208 200 193 199 197 186 188 194 195 196 188 192 200 205 214 216 190 186
268 245 246 245 253 244 240 247 199 183 179 192 184 173 183 180 183 191 190 194 193 197 197 194 196 194 195 194 194 194 193 192 192 194 198 200 200 201 201 197 202 203 201 204 208 207 209 208 206 205 208 213 213 185 182 182 185 185 178 195 199 203 205 208 214 210 206 199 191 192 193 192 187 189 188 190 197 182 193 194 202 204 199 182 178
277 277 257 246 239 211 191 186 191 194 195 181 168 176 176 182 190 187 186 192 196 202 199 195 197 195 195 193 193 191 192 193 193 197 199 200 200 200 200 196 201 200 204 206 203 207 210 209 208 209 209 210 214 186 182 182 183 181 182 192 197 197 206 210 213 206 197 194 194 190 184 183 184 194 182 189 193 186 192 197 191 183 184 196 183
354 351 330 261 216 199 186 157 168 195 200 181 176 174 177 186 187 188 191 195 200 202 194 194 199 198 196 193 191 192 195 196 198 202 199 199 199 200 199 194 203 204 208 204 202 209 211 211 213 213 206 209 212 190 183 181 182 182 187 194 190 196 203 208 204 200 191 194 192 191 183 183 188 181 176 189 188 184 190 181 183 172 190 208 188
359 1 334 309 295 115 118 147 158 161 144 175 176 175 186 187 190 190 194 203 208 205 196 197 198 192 189 190 192 193 197 197 201 200 198 202 198 196 199 202 207 208 206 203 205 211 211 212 210 214 207 209 208 187 184 182 184 185 188 190 187 191 201 202 199 191 186 194 185 187 188 183 181 175 180 182 184 182 182 173 170 187 186 211 150
20 13 16 48 43 58 61 49 25 353 142 159 163 177 191 195 191 194 206 209 204 191 192 202 194 189 191 194 194 197 199 201 199 196 196 196 193 197 196 198 203 202 207 208 209 209 212 217 214 212 213 210 209 188 182 185 185 186 189 187 189 195 198 192 188 189 190 184 179 184 182 181 180 178 179 183 182 184 172 167 171 189 193 129 140
41 32 39 54 57 53 43 28 17 1 356 157 160 180 192 183 193 207 211 206 195 192 191 186 185 191 194 194 197 200 201 200 195 191 193 199 199 195 195 198 198 197 203 211 210 209 212 214 213 211 213 211 203 188 169 190 186 187 187 192 190 196 192 182 181 192 180 176 179 174 179 182 179 177 182 183 179 175 170 161 174 139 123 142 150
33 38 36 52 58 53 49 41 23 20 16 349 175 174 181 190 208 222 208 165 182 188 193 195 196 197 195 195 196 193 193 193 193 196 197 198 193 196 198 194 193 195 201 206 209 210 213 214 212 212 211 208 199 186 174 177 190 187 188 194 196 193 182 175 178 179 182 180 164 168 169 168 176 178 178 177 174 166 156 144 137 140 147 147 143
46 51 51 62 73 66 57 45 40 38 32 30 31 197 194 197 225 21 152 155 155 172 177 187 198 205 203 203 200 199 194 192 194 194 197 198 195 197 195 195 197 197 199 203 205 206 207 212 212 208 202 197 190 173 172 178 183 189 190 193 198 184 169 184 177 178 170 159 153 161 166 173 174 172 174 168 159 157 143 136 141 143 143 141 129
49 39 41 59 70 74 72 55 38 32 36 34 31 43 351 309 349 343 291 181 166 159 169 186 194 197 200 201 192 193 196 197 198 195 198 201 202 195 195 197 194 199 201 203 204 200 203 207 207 200 192 184 171 166 150 184 182 187 190 191 193 177 173 158 159 160 153 161 166 157 152 162 167 164 150 136 135 128 123 136 137 144 144 141 142
89 56 32 43 59 66 58 55 40 33 34 35 34 40 43 2 339 344 337 320 195 176 183 192 192 192 195 189 191 198 199 202 201 200 203 202 199 197 201 199 196 199 200 202 203 199 202 203 202 198 189 177 170 166 174 172 180 184 186 188 182 172 164 163 156 154 159 149 147 144 146 143 135 138 135 144 149 137 125 123 133 146 152 147 154
24 17 30 47 54 52 48 52 53 35 33 35 42 44 38 8 2 349 344 329 268 207 204 201 201 202 200 196 201 203 206 208 206 208 209 208 205 203 205 204 204 206 207 208 205 202 203 200 196 190 180 175 172 170 167 164 167 166 164 161 164 162 147 137 134 136 128 128 130 132 140 142 136 134 125 122 119 123 121 132 146 159 166 168 164
30 21 21 25 26 27 27 30 39 25 30 37 39 36 23 18 15 12 360 357 345 288 242 235 224 215 206 204 209 210 206 205 206 206 207 207 207 206 207 207 204 204 203 208 211 208 203 198 194 183 174 170 172 174 170 161 156 143 135 150 166 160 161 157 140 136 134 127 117 112 111 116 124 118 118 123 124 137 143 147 153 161 169 174 161
48 40 44 46 32 26 15 13 12 11 22 26 31 34 29 31 17 7 11 25 19 347 346 339 300 207 218 218 221 218 213 212 208 209 213 209 201 202 208 214 213 206 203 203 205 208 208 204 193 175 165 162 160 171 184 169 162 163 157 162 167 166 157 152 143 131 121 117 118 128 134 136 138 136 134 139 141 149 153 153 157 164 164 170 175
60 64 61 60 55 49 37 26 5 359 8 16 17 17 18 27 26 23 23 43 33 45 54 44 34 46 43 53 64 71 323 258 232 230 231 237 259 255 230 214 217 218 218 216 203 202 198 175 161 169 164 157 159 175 169 171 169 163 163 162 152 145 146 137 137 133 131 130 139 144 151 151 148 147 148 152 159 165 162 164 170 168 173 184 184
54 59 55 55 52 49 51 41 20 4 14 16 14 11 12 15 20 27 30 35 49 70 71 61 55 51 49 61 56 53 34 51 60 81 164 228 252 272 294 329 348 337 281 236 223 199 152 158 162 159 164 153 157 155 157 165 156 149 143 137 138 139 137 139 136 129 131 139 149 152 155 155 155 152 155 162 165 168 169 168 173 178 190 185 187